User: anonymous   Login
Location: Unspecified
(0.0000°N, 0.0000°E)
Time: 09:00:45
(UTC+00:00)
Language:

STARLINK-3706 - Orbit

View from above orbital plane
View from above orbital plane
View from above satellite
View from above satellite

Ground track
Ground track

The orbit is defined by the following mean orbital elements,

1 52105U          26145.27075852 +.00000000 +00000-0 +13863-3 0 00004
2 52105  53.2134  95.3349 0001515  32.6699 327.4387 15.08856204    06
Epoch (UTC): 25 May 2026 06:29:53
Eccentricity: 0.0001515
inclination: 53.2134°
perigee height: 539 km
apogee height: 541 km
right ascension of ascending node: 95.3349°
argument of perigee: 32.6699°
revolutions per day: 15.08856204
mean anomaly at epoch: 327.4387°

The dashed part of the orbit path shows where the satellite is in the earth's shadow,  

DLR